Goldsboro, NC

12:52 AM EDT on July 28, 2017 (GMT -0400)
Seymour Johnson Air Force Base

Weather History for KGSB - December, 2012

Change the Weather History Date:

Friday, December 21, 2012

  Actual Average Record
Temperature  
Mean Temperature 52 °F -  
Max Temperature 64 °F 51 °F 73 °F (2013)
Min Temperature 39 °F 33 °F 19 °F (1996)
Degree Days  
Heating Degree Days 14    
Growing Degree Days 2 (Base 50)    
Moisture  
Dew Point 40 °F    
Average Humidity 66    
Maximum Humidity 94    
Minimum Humidity 36    
Precipitation  
Precipitation 0.00 in - - ()
Sea Level Pressure  
Sea Level Pressure 29.58 in    
Wind  
Wind Speed 21 mph (WSW)    
Max Wind Speed 37 mph    
Max Gust Speed 47 mph    
Visibility 10 miles    
Events Rain    
Averages and records for this station are not official NWS values.
T = Trace of Precipitation, MM = Missing Value Source: NWS Daily Summary

Daily Weather History Graph

Daily Weather History Graph

Search for Another Location

Airport or City:

Trip Planner

Search our weather history database for the weather conditions in past years. The results will help you decide how hot, cold, wet, or windy it might be!

Date:

Astronomy

Dec. 21, 2012 Rise Set
Actual Time 7:17 AM EST 5:03 PM EST
Civil Twilight 6:48 AM EST 5:31 PM EST
Nautical Twilight 6:16 AM EST 6:03 PM EST
Astronomical Twilight 5:45 AM EST 6:34 PM EST
Moon 12:41 PM EST (12/21) 1:11 AM EST (12/21)
Length of Visible Light 10h 42m
Length of Day
9h 46m
Waxing Gibbous, 64% of the Moon is Illuminated
Dec 21
Waxing Gibbous
Dec 28
Full
Jan 4
Last Quarter
Jan 11
New
Jan 18
First Quarter

Hourly Weather History & Observations

Time (EST) Temp. Windchill Dew Point Humidity Pressure Visibility Wind Dir Wind Speed Gust Speed Precip Events Conditions
12:00 AM 64.4 °F - 62.6 °F 94% 29.48 in 8.0 mi South 15.0 mph 25.3 mph N/A Rain Light Rain
12:05 AM 64.4 °F - 62.6 °F 94% 29.47 in 7.0 mi South 19.6 mph 26.5 mph N/A Rain Light Rain
12:33 AM 64.4 °F - 62.6 °F 94% 29.45 in 10.0 mi South 11.5 mph 21.9 mph N/A   Overcast
12:43 AM 64.4 °F - 62.6 °F 94% 29.44 in 10.0 mi South 15.0 mph 25.3 mph N/A   Overcast
12:48 AM 64.4 °F - 62.6 °F 94% 29.44 in 8.0 mi South 18.4 mph 25.3 mph N/A Rain Light Rain
12:55 AM 64.8 °F - 63.0 °F 94% 29.45 in 7.0 mi SSW 27.6 mph 40.3 mph 0.00 in Rain Light Rain
1:01 AM 64.4 °F - 62.6 °F 94% 29.46 in 10.0 mi WSW 27.6 mph 40.3 mph N/A Rain Light Rain
1:09 AM 64.4 °F - 60.8 °F 88% 29.47 in 10.0 mi WSW 24.2 mph 34.5 mph N/A Rain Light Rain
1:10 AM 64.4 °F - 60.8 °F 88% 29.47 in 10.0 mi WSW 25.3 mph 34.5 mph N/A   Overcast
1:16 AM 62.6 °F - 60.8 °F 94% 29.48 in 10.0 mi WSW 36.8 mph 47.2 mph N/A Rain Light Rain
1:25 AM 59.0 °F - 50.0 °F 72% 29.49 in 10.0 mi West 28.8 mph 47.2 mph N/A Rain Light Rain
1:27 AM 59.0 °F - 50.0 °F 72% 29.49 in 10.0 mi West 27.6 mph 42.6 mph N/A   Overcast
1:36 AM 57.2 °F - 48.2 °F 72% 29.49 in 10.0 mi WSW 26.5 mph 38.0 mph N/A   Overcast
1:46 AM 57.2 °F - 46.4 °F 67% 29.50 in 10.0 mi WSW 23.0 mph 35.7 mph N/A   Overcast
1:55 AM 56.3 °F - 46.9 °F 71% 29.50 in 10.0 mi WSW 21.9 mph - 0.00 in   Overcast
2:55 AM 51.6 °F - 42.3 °F 70% 29.53 in 10.0 mi West 23.0 mph 36.8 mph N/A   Scattered Clouds
3:04 AM 51.8 °F - 42.8 °F 71% 29.52 in 10.0 mi West 26.5 mph 32.2 mph N/A   Mostly Cloudy
3:29 AM 50.0 °F - 41.0 °F 71% 29.52 in 10.0 mi WSW 24.2 mph 32.2 mph N/A   Scattered Clouds
3:47 AM 50.0 °F - 39.2 °F 66% 29.53 in 10.0 mi WSW 31.1 mph 40.3 mph N/A Rain Light Rain
3:55 AM 48.7 °F - 38.5 °F 68% 29.53 in 10.0 mi WSW 25.3 mph 40.3 mph 0.00 in Rain Light Rain
3:57 AM 48.2 °F - 39.2 °F 71% 29.53 in 10.0 mi WSW 23.0 mph 36.8 mph N/A   Partly Cloudy
4:55 AM 46.2 °F 38.3 °F 36.3 °F 68% 29.55 in 10.0 mi WSW 21.9 mph 34.5 mph 0.00 in   Mostly Cloudy
5:55 AM 44.1 °F 35.9 °F 34.0 °F 68% 29.58 in 10.0 mi WSW 19.6 mph 27.6 mph N/A   Scattered Clouds
6:55 AM 42.3 °F 33.8 °F 32.4 °F 68% 29.61 in 10.0 mi WSW 18.4 mph - N/A   Clear
7:55 AM 42.1 °F 34.2 °F 30.9 °F 65% 29.62 in 10.0 mi WSW 16.1 mph 23.0 mph N/A   Clear
8:55 AM 44.2 °F 35.4 °F 30.2 °F 58% 29.62 in 10.0 mi WSW 23.0 mph 29.9 mph N/A   Clear
9:55 AM 46.8 °F - 30.7 °F 54% 29.63 in 10.0 mi WSW 20.7 mph 32.2 mph N/A   Clear
10:55 AM 48.0 °F - 29.5 °F 49% 29.64 in 10.0 mi WSW 28.8 mph 34.5 mph N/A   Partly Cloudy
11:55 AM 48.2 °F - 27.9 °F 45% 29.63 in 10.0 mi West 20.7 mph 29.9 mph N/A   Mostly Cloudy
12:55 PM 47.1 °F - 25.9 °F 44% 29.61 in 10.0 mi West 21.9 mph 31.1 mph N/A   Overcast
1:55 PM 47.5 °F - 24.4 °F 41% 29.62 in 10.0 mi West 18.4 mph 24.2 mph N/A   Overcast
2:55 PM 47.8 °F - 21.7 °F 36% 29.63 in 10.0 mi West 20.7 mph 31.1 mph N/A   Mostly Cloudy
3:55 PM 47.8 °F - 22.3 °F 37% 29.64 in 10.0 mi West 28.8 mph 36.8 mph N/A   Mostly Cloudy
4:55 PM 45.1 °F 36.6 °F 21.0 °F 38% 29.67 in 10.0 mi West 23.0 mph 33.4 mph N/A   Clear
5:55 PM 43.5 °F 34.3 °F 20.8 °F 41% 29.71 in 10.0 mi West 24.2 mph 36.8 mph N/A   Clear
6:55 PM 42.4 °F 34.4 °F 20.7 °F 42% 29.74 in 10.0 mi West 17.3 mph 31.1 mph N/A   Clear
7:55 PM 41.0 °F 31.6 °F 21.0 °F 45% 29.76 in 10.0 mi West 20.7 mph 28.8 mph N/A   Clear
8:55 PM 40.1 °F 31.3 °F 22.1 °F 49% 29.78 in 10.0 mi West 17.3 mph - N/A   Clear
9:55 PM 39.6 °F 31.3 °F 22.5 °F 50% 29.79 in 10.0 mi West 15.0 mph 24.2 mph N/A   Clear
10:55 PM 39.6 °F 31.0 °F 22.1 °F 50% 29.80 in 10.0 mi West 16.1 mph 25.3 mph N/A   Clear
11:55 PM 39.2 °F 30.5 °F 21.6 °F 49% 29.80 in 10.0 mi West 16.1 mph 21.9 mph N/A   Clear